This is the latest recevied weather packets stored in our database for station/object KD2ZLA. If no packets are shown the sender has not sent any weather packets the latest 1 day(s).
| Time | Temp. | Humidity | Pressure | Rain* | Wind** | Luminosity | Snow |
|---|---|---|---|---|---|---|---|
| 1778066845 | 5.56° C | 94% | 1009.9 hPa | 0.51 mm | - | 24 W/m² | - |
| 1778066543 | 5.56° C | 94% | 1010 hPa | 0.51 mm | - | 21 W/m² | - |
| 1778066240 | 5.56° C | 93% | 1009.9 hPa | 1.27 mm | - | 14 W/m² | - |
| 1778065029 | 5.56° C | 94% | 1009.9 hPa | 2.29 mm | - | 15 W/m² | - |
| 1778064424 | 6.11° C | 95% | 1009.9 hPa | 1.78 mm | - | 8 W/m² | - |
| 1778064121 | 6.11° C | 95% | 1009.7 hPa | 1.78 mm | - | 7 W/m² | - |
| 1778063818 | 6.11° C | 95% | 1009.8 hPa | 1.78 mm | - | 7 W/m² | - |
| 1778063515 | 6.11° C | 95% | 1009.7 hPa | 2.29 mm | - | 6 W/m² | - |
| 1778063213 | 6.11° C | 95% | 1009.5 hPa | 2.29 mm | - | 5 W/m² | - |
| 1778062910 | 6.11° C | 95% | 1009.5 hPa | 2.29 mm | - | 6 W/m² | - |
| 1778062607 | 6.11° C | 95% | 1009.7 hPa | 2.29 mm | - | 5 W/m² | - |
| 1778062304 | 6.11° C | 95% | 1009.7 hPa | 1.78 mm | - | 4 W/m² | - |
| 1778061700 | 6.11° C | 95% | 1008.9 hPa | 1.27 mm | - | 2 W/m² | - |
| 1778060490 | 6.11° C | 94% | 1008.9 hPa | 1.78 mm | - | 0 W/m² | - |
| 1778059885 | 6.11° C | 94% | 1008.9 hPa | 1.78 mm | - | 0 W/m² | - |
| 1778059583 | 6.11° C | 94% | 1009.3 hPa | 1.27 mm | - | 0 W/m² | - |
| 1778058978 | 6.67° C | 94% | 1009.5 hPa | 1.27 mm | - | 0 W/m² | - |
| 1778058675 | 6.67° C | 94% | 1009.4 hPa | 1.27 mm | - | 0 W/m² | - |
| 1778058069 | 6.67° C | 94% | 1009.8 hPa | 0 mm | - | 0 W/m² | - |
| 1778057766 | 6.67° C | 94% | 1009.7 hPa | 0.51 mm | - | 0 W/m² | - |
| 1778056250 | 6.67° C | 94% | 1009.5 hPa | 0 mm | - | 0 W/m² | - |
| 1778055642 | 6.67° C | 94% | 1009.3 hPa | 0 mm | - | 0 W/m² | - |
| 1778054130 | 6.67° C | 94% | 1009.6 hPa | 0 mm | - | 0 W/m² | - |
| 1778053524 | 6.67° C | 94% | 1009.7 hPa | 0 mm | - | 0 W/m² | - |
| 1778053221 | 6.67° C | 94% | 1009.4 hPa | 0 mm | - | 0 W/m² | - |
* Rain latest hour (hover to see other rain measurements)
** Current wind speed in m/s (hover to see current wind gust speed)